Fort Nelson, British Columbia

6:28 PM PDT on July 26, 2017 (GMT -0700)
Fort Nelson

Weather History for CYYE - August, 2013

Change the Weather History Date:

Tuesday, August 13, 2013

  Actual Average Record
Temperature  
Mean Temperature 62 °F -  
Max Temperature 76 °F 65 °F 82 °F (2001)
Min Temperature 49 °F 43 °F 37 °F (2007)
Degree Days  
Heating Degree Days 2    
Growing Degree Days 12 (Base 50)    
Moisture  
Dew Point 55 °F    
Average Humidity 82    
Maximum Humidity 100    
Minimum Humidity 50    
Precipitation  
Precipitation 0.00 in 0.07 in - ()
Sea Level Pressure  
Sea Level Pressure 30.04 in    
Wind  
Wind Speed 2 mph ()    
Max Wind Speed 9 mph    
Max Gust Speed -    
Visibility 7.0 miles    
Events Fog    
Averages and records for this station are not official NWS values.
T = Trace of Precipitation, MM = Missing Value Source: Averaged Metar Reports

Daily Weather History Graph

Daily Weather History Graph

Search for Another Location

Airport or City:

Trip Planner

Search our weather history database for the weather conditions in past years. The results will help you decide how hot, cold, wet, or windy it might be!

Date:

Astronomy

Aug. 13, 2013 Rise Set
Actual Time 5:26 AM PDT 9:02 PM PDT
Civil Twilight 4:36 AM PDT 9:51 PM PDT
Nautical Twilight 3:24 AM PDT 11:01 PM PDT
Astronomical Twilight 1:47 AM PDT 12:42 AM PDT
Moon 2:20 PM PDT (8/13) 10:45 PM PDT (8/13)
Length of Visible Light 17h 14m
Length of Day
15h 35m
Waxing Crescent, 43% of the Moon is Illuminated
Aug 13
Waxing Crescent
Aug 14
First Quarter
Aug 20
Full
Aug 28
Last Quarter
Sep 5
New

Hourly Weather History & Observations

Time (PDT) Temp. Dew Point Humidity Pressure Visibility Wind Dir Wind Speed Gust Speed Precip Events Conditions
12:00 AM 57.2 °F 55.4 °F 94% 30.08 in 15.0 mi NNW 2.3 mph - N/A   Partly Cloudy
1:00 AM 55.4 °F 53.6 °F 94% 30.08 in 15.0 mi West 3.5 mph - N/A   Clear
2:00 AM 53.6 °F 51.8 °F 94% 30.08 in 15.0 mi NW 3.5 mph - N/A   Clear
3:00 AM 51.8 °F 50.0 °F 94% 30.07 in 15.0 mi West 3.5 mph - N/A   Partly Cloudy
4:00 AM 50.0 °F 48.2 °F 94% 30.07 in 15.0 mi NNE 3.5 mph - N/A   Partly Cloudy
4:27 AM 51.8 °F 50.0 °F 94% 30.08 in 1.0 mi NW 3.5 mph - N/A   Partly Cloudy
5:00 AM 50 °F 49 °F 95% 30.07 in 5 mi West 2.3 mph - -   Mist
5:00 AM 50.0 °F 50.0 °F 100% 30.07 in 5.0 mi Variable 2.3 mph - N/A   Scattered Clouds
5:23 AM 50.0 °F 48.2 °F 94% 30.08 in 1.5 mi Calm Calm - N/A   Scattered Clouds
6:00 AM 50.0 °F 50.0 °F 100% 30.08 in 0.5 mi Calm Calm - N/A Fog Fog
6:26 AM 50.0 °F 50.0 °F 100% 30.07 in 0.2 mi West 2.3 mph - N/A Fog Fog
6:48 AM 51.8 °F 51.8 °F 100% 30.07 in 0.1 mi Calm Calm - N/A Fog Fog
7:00 AM 53.6 °F 53.6 °F 100% 30.07 in 0.1 mi South 2.3 mph - N/A Fog Fog
8:00 AM 53.6 °F 53.6 °F 100% 30.08 in 0.1 mi South 2.3 mph - N/A Fog Fog
9:00 AM 55.4 °F 55.4 °F 100% 30.08 in 0.5 mi Calm Calm - N/A Fog Fog
9:29 AM 57.2 °F 55.4 °F 94% 30.08 in 1.0 mi ESE 4.6 mph - N/A   Overcast
10:00 AM 59.0 °F 57.2 °F 94% 30.08 in 5.0 mi Calm Calm - N/A   Mostly Cloudy
10:46 AM 64.4 °F 59.0 °F 83% 30.07 in 30.0 mi East 2.3 mph - N/A   Scattered Clouds
11:00 AM 65 °F 58 °F 73% 30.07 in 28 mi East 1.2 mph - -   Partly Cloudy
11:00 AM 66.2 °F 59.0 °F 78% 30.07 in 30.0 mi Calm Calm - N/A   Mostly Cloudy
12:00 PM 68.0 °F 60.8 °F 78% 30.05 in 30.0 mi SSE 3.5 mph - N/A   Scattered Clouds
1:00 PM 71.6 °F 59.0 °F 64% 30.04 in 30.0 mi Variable 2.3 mph - N/A   Mostly Cloudy
2:00 PM 75.2 °F 57.2 °F 53% 30.02 in 30.0 mi Variable 2.3 mph - N/A   Mostly Cloudy
3:00 PM 75.2 °F 57.2 °F 53% 30.00 in 30.0 mi NNW 3.5 mph - N/A   Mostly Cloudy
4:00 PM 77.0 °F 57.2 °F 50% 29.99 in 30.0 mi North 3.5 mph - N/A   Mostly Cloudy
5:00 PM 74 °F 59 °F 50% 29.97 in 25 mi NW 2.3 mph - -   Scattered Clouds
5:00 PM 73.4 °F 59.0 °F 61% 29.97 in 25.0 mi Variable 2.3 mph - N/A   Scattered Clouds
6:00 PM 73.4 °F 62.6 °F 69% 29.97 in 30.0 mi ENE 2.3 mph - N/A   Mostly Cloudy
7:00 PM 73.4 °F 59.0 °F 61% 29.96 in 30.0 mi Calm Calm - N/A   Mostly Cloudy
8:00 PM 69.8 °F 62.6 °F 78% 29.95 in 30.0 mi SSE 9.2 mph - N/A   Mostly Cloudy
9:00 PM 68.0 °F 57.2 °F 68% 29.96 in 30.0 mi South 5.8 mph - N/A   Mostly Cloudy
10:00 PM 64.4 °F 57.2 °F 77% 29.94 in 15.0 mi SSW 4.6 mph - N/A   Mostly Cloudy
11:00 PM 63 °F 57 °F 76% 29.94 in 15 mi South 3.5 mph - -   Partly Cloudy
11:00 PM 62.6 °F 57.2 °F 82% 29.94 in 15.0 mi South 4.6 mph - N/A   Scattered Clouds